Weather History for Austin, MN

Change the Weather History Date:

Sunday, January 6, 2013

  Actual Average Record
Temperature  
Mean Temperature 14 °F -  
Max Temperature 19 °F 23 °F 42 °F (2012)
Min Temperature 8 °F 10 °F -23 °F (2014)
Degree Days  
Heating Degree Days 52    
Moisture  
Dew Point 7 °F    
Average Humidity 79    
Maximum Humidity 92    
Minimum Humidity 63    
Precipitation  
Precipitation 0.00 in - - ()
Sea Level Pressure  
Sea Level Pressure 30.14 in    
Wind  
Wind Speed 8 mph (West)    
Max Wind Speed 15 mph    
Max Gust Speed 16 mph    
Visibility 10 miles    
Events Snow    
Averages and records for this station are not official NWS values.
T = Trace of Precipitation, MM = Missing Value Source: NWS Daily Summary

Daily Weather History Graph

Daily Weather History Graph

Search for Another Location

Airport:

Trip Planner

Search our weather history database for the weather conditions in past years. The results will help you decide how hot, cold, wet, or windy it might be!

Date:

Astronomy

Jan. 06, 2013 Rise Set
Actual Time 7:45 AM CST 4:50 PM CST
Civil Twilight 7:12 AM CST 5:23 PM CST
Nautical Twilight 6:36 AM CST 5:59 PM CST
Astronomical Twilight 6:02 AM CST 6:33 PM CST
Moon 1:55 AM CST (1/6) 12:21 PM CST (1/6)
Length of Visible Light 10h 10m
Length of Day
9h 05m
Waning Crescent, 33% of the Moon is Illuminated
Jan 6
Waning Crescent
Jan 11
New
Jan 18
First Quarter
Jan 26
Full
Feb 3
Last Quarter

Hourly Weather History & Observations

Time (CST) Temp. Windchill Dew Point Humidity Pressure Visibility Wind Dir Wind Speed Gust Speed Precip Events Conditions
12:15 AM 8.6 °F -2.6 °F 5.0 °F 85% 29.99 in 7.0 mi WNW 6.9 mph - N/A   Clear
12:35 AM 8.6 °F -3.7 °F 5.0 °F 85% 29.99 in 7.0 mi WNW 8.1 mph - N/A   Clear
12:55 AM 8.6 °F -4.7 °F 5.0 °F 85% 30.00 in 7.0 mi NW 9.2 mph - N/A   Clear
1:15 AM 8.6 °F -3.7 °F 5.0 °F 85% 30.00 in 7.0 mi NW 8.1 mph - N/A   Clear
1:35 AM 10.4 °F -4.8 °F 6.8 °F 85% 30.02 in 7.0 mi NW 12.7 mph - N/A   Clear
2:15 AM 10.4 °F -6.0 °F 6.8 °F 85% 30.03 in 7.0 mi NW 15.0 mph - N/A   Clear
2:35 AM 10.4 °F -3.3 °F 6.8 °F 85% 30.04 in 10.0 mi NW 10.4 mph - N/A   Scattered Clouds
2:55 AM 10.4 °F -5.4 °F 8.6 °F 92% 30.04 in 10.0 mi WNW 13.8 mph - N/A   Overcast
3:16 AM 10.4 °F -3.3 °F 6.8 °F 85% 30.05 in 10.0 mi NW 10.4 mph - N/A   Scattered Clouds
3:35 AM 10.4 °F -0.4 °F 6.8 °F 85% 30.05 in 10.0 mi WNW 6.9 mph - N/A   Scattered Clouds
3:55 AM 10.4 °F -4.8 °F 6.8 °F 85% 30.06 in 10.0 mi WNW 12.7 mph - N/A   Mostly Cloudy
4:15 AM 10.4 °F -4.1 °F 6.8 °F 85% 30.06 in 10.0 mi NW 11.5 mph - N/A   Overcast
4:35 AM 8.6 °F -7.0 °F 6.8 °F 92% 30.06 in 10.0 mi NW 12.7 mph 16.1 mph N/A   Overcast
4:55 AM 8.6 °F -6.3 °F 6.8 °F 92% 30.07 in 10.0 mi NW 11.5 mph - N/A Snow Light Snow
5:35 AM 8.6 °F -4.7 °F 6.8 °F 92% 30.07 in 7.0 mi NW 9.2 mph - N/A Snow Light Snow
5:55 AM 8.6 °F -5.5 °F 6.8 °F 92% 30.09 in 7.0 mi NW 10.4 mph - N/A Snow Light Snow
6:15 AM 10.4 °F -3.3 °F 6.8 °F 85% 30.10 in 10.0 mi NW 10.4 mph - N/A   Overcast
6:35 AM 8.6 °F -3.7 °F 5.0 °F 85% 30.11 in 10.0 mi NW 8.1 mph - N/A   Overcast
6:55 AM 8.6 °F -4.7 °F 3.2 °F 79% 30.11 in 10.0 mi WNW 9.2 mph 16.1 mph N/A   Mostly Cloudy
7:15 AM 8.6 °F -2.6 °F 3.2 °F 79% 30.11 in 10.0 mi WNW 6.9 mph - N/A   Scattered Clouds
7:35 AM 8.6 °F -3.7 °F 1.4 °F 73% 30.13 in 10.0 mi WNW 8.1 mph - N/A   Clear
7:55 AM 8.6 °F -3.7 °F 1.4 °F 73% 30.15 in 10.0 mi NW 8.1 mph - N/A   Clear
8:36 AM 8.6 °F -1.3 °F 1.4 °F 73% 30.16 in 10.0 mi NW 5.8 mph - N/A   Clear
8:55 AM 8.6 °F -3.7 °F 1.4 °F 73% 30.17 in 10.0 mi NW 8.1 mph - N/A   Clear
9:15 AM 10.4 °F -3.3 °F 3.2 °F 73% 30.18 in 10.0 mi WNW 10.4 mph - N/A   Clear
9:35 AM 10.4 °F -3.3 °F 3.2 °F 73% 30.18 in 10.0 mi NW 10.4 mph - N/A   Clear
9:55 AM 10.4 °F -2.4 °F 3.2 °F 73% 30.19 in 10.0 mi NW 9.2 mph - N/A   Clear
10:15 AM 12.2 °F -0.2 °F 5.0 °F 73% 30.20 in 10.0 mi NW 9.2 mph - N/A   Clear
10:35 AM 12.2 °F 1.7 °F 5.0 °F 73% 30.20 in 10.0 mi WNW 6.9 mph - N/A   Clear
10:55 AM 12.2 °F -0.2 °F 5.0 °F 73% 30.20 in 10.0 mi WNW 9.2 mph - N/A   Clear
11:15 AM 14.0 °F 3.9 °F 6.8 °F 73% 30.20 in 10.0 mi NW 6.9 mph - N/A   Clear
11:35 AM 15.8 °F 6.1 °F 6.8 °F 68% 30.20 in 10.0 mi WNW 6.9 mph - N/A   Clear
11:55 AM 15.8 °F 6.1 °F 6.8 °F 68% 30.20 in 10.0 mi WNW 6.9 mph - N/A   Clear
12:15 PM 15.8 °F 6.1 °F 6.8 °F 68% 30.19 in 10.0 mi WNW 6.9 mph - N/A   Clear
12:35 PM 17.6 °F 9.3 °F 8.6 °F 68% 30.20 in 10.0 mi West 5.8 mph - N/A   Clear
12:55 PM 17.6 °F 10.7 °F 8.6 °F 68% 30.19 in 10.0 mi West 4.6 mph - N/A   Clear
1:15 PM 17.6 °F 8.2 °F 8.6 °F 68% 30.19 in 10.0 mi WSW 6.9 mph - N/A   Clear
1:35 PM 17.6 °F - 8.6 °F 68% 30.18 in 10.0 mi Calm Calm - N/A   Clear
1:55 PM 19.4 °F 14.3 °F 8.6 °F 63% 30.18 in 10.0 mi West 3.5 mph - N/A   Clear
2:15 PM 19.4 °F 14.3 °F 8.6 °F 63% 30.19 in 10.0 mi SW 3.5 mph - N/A   Clear
2:35 PM 17.6 °F 9.3 °F 10.4 °F 73% 30.18 in 10.0 mi SSW 5.8 mph - N/A   Clear
2:54 PM 17.6 °F 9.3 °F 10.4 °F 73% 30.19 in 10.0 mi SSW 5.8 mph - N/A   Clear
3:15 PM 17.6 °F 9.3 °F 10.4 °F 73% 30.19 in 10.0 mi SSW 5.8 mph - N/A   Unknown
3:35 PM 17.6 °F 9.3 °F 10.4 °F 73% 30.20 in - SW 5.8 mph - N/A   Unknown
3:55 PM 17.6 °F 9.3 °F 10.4 °F 73% 30.20 in 10.0 mi SW 5.8 mph - N/A   Unknown
4:15 PM 15.8 °F 8.6 °F 10.4 °F 79% 30.20 in 10.0 mi SSW 4.6 mph - N/A   Unknown
4:35 PM 15.8 °F 8.6 °F 10.4 °F 79% 30.21 in 10.0 mi SW 4.6 mph - N/A   Unknown
4:55 PM 14.0 °F 8.2 °F 8.6 °F 79% 30.20 in 10.0 mi SW 3.5 mph - N/A   Unknown
5:15 PM 14.0 °F - 8.6 °F 79% 30.19 in 10.0 mi Calm Calm - N/A   Unknown
5:35 PM 14.0 °F 8.2 °F 8.6 °F 79% 30.19 in 10.0 mi South 3.5 mph - N/A   Unknown
5:55 PM 12.2 °F - 6.8 °F 79% 30.19 in 10.0 mi Calm Calm - N/A   Unknown
6:15 PM 12.2 °F 4.3 °F 8.6 °F 85% 30.19 in 10.0 mi South 4.6 mph - N/A   Unknown
6:35 PM 12.2 °F 6.1 °F 6.8 °F 79% 30.19 in 10.0 mi SSE 3.5 mph - N/A   Unknown
6:55 PM 12.2 °F 6.1 °F 8.6 °F 85% 30.19 in 10.0 mi South 3.5 mph - N/A   Unknown
7:15 PM 12.2 °F 6.1 °F 8.6 °F 85% 30.18 in 10.0 mi South 3.5 mph - N/A   Unknown
7:35 PM 12.2 °F 6.1 °F 6.8 °F 79% 30.18 in 10.0 mi South 3.5 mph - N/A   Unknown
7:55 PM 12.2 °F 1.7 °F 8.6 °F 85% 30.17 in 10.0 mi South 6.9 mph - N/A   Unknown
8:15 PM 12.2 °F 1.7 °F 8.6 °F 85% 30.17 in 10.0 mi South 6.9 mph - N/A   Unknown
8:35 PM 12.2 °F 4.3 °F 10.4 °F 92% 30.16 in 10.0 mi South 4.6 mph - N/A   Unknown
9:15 PM 12.2 °F 1.7 °F 10.4 °F 92% 30.15 in 10.0 mi South 6.9 mph - N/A   Unknown
10:15 PM 14.0 °F 3.9 °F 10.4 °F 86% 30.13 in 10.0 mi SSE 6.9 mph - N/A   Unknown
10:35 PM 14.0 °F 5.1 °F 10.4 °F 86% 30.12 in 10.0 mi South 5.8 mph - N/A   Unknown
10:56 PM 15.8 °F 4.2 °F 10.4 °F 79% 30.12 in 10.0 mi South 9.2 mph - N/A   Unknown
11:35 PM 15.8 °F 6.1 °F 12.2 °F 86% 30.11 in 10.0 mi SSE 6.9 mph - N/A   Unknown
11:56 PM 15.8 °F 4.2 °F 12.2 °F 86% 30.10 in 10.0 mi SSE 9.2 mph - N/A   Unknown